YB3RDW-13 Weather Reports


time (UTC)temp
C
wind
direction
speed
KPH
gust
KPH
rain 1hr
cm
rain 24hr
cm
rain mn
cm
humidity
%
barometer
mb
20260507203158 26 129 4.8 4.8 0.00 0.00 0.00 94 1010.0
20260507202657 26 149 3.2 3.2 0.00 0.00 0.00 93 1010.0
20260507202157 26 123 1.6 3.2 0.00 0.00 0.00 94 1010.0
20260507201657 26 142 1.6 1.6 0.00 0.00 0.00 94 1010.0
20260507201157 26 150 1.6 3.2 0.00 0.00 0.00 94 1010.0
20260507200657 26 153 1.6 1.6 0.00 0.00 0.00 94 1010.0
20260507200158 26 145 0.0 0.0 0.00 0.00 0.00 94 1010.0
20260507195657 26 156 1.6 1.6 0.00 0.00 0.00 94 1010.0
20260507195158 26 136 3.2 3.2 0.00 0.00 0.00 93 1010.0
20260507194657 26 146 0.0 1.6 0.00 0.00 0.00 93 1010.0
20260507194157 26 157 1.6 3.2 0.00 0.00 0.00 93 1010.0
20260507193659 26 142 3.2 3.2 0.00 0.00 0.00 93 1010.0
20260507193158 26 152 1.6 3.2 0.00 0.00 0.00 93 1010.0
20260507192657 26 152 3.2 3.2 0.00 0.00 0.00 93 1011.0
20260507192157 26 155 0.0 0.0 0.00 0.00 0.00 93 1010.0
20260507191657 26 124 1.6 3.2 0.00 0.00 0.00 93 1010.0
20260507191157 26 140 3.2 3.2 0.00 0.00 0.00 93 1010.0
20260507190658 26 150 3.2 3.2 0.00 0.00 0.00 93 1011.0
20260507190158 26 119 4.8 4.8 0.00 0.00 0.00 93 1011.0
20260507185657 26 133 3.2 3.2 0.00 0.00 0.00 93 1011.0
20260507185157 26 151 1.6 1.6 0.00 0.00 0.00 93 1011.0
20260507184703 26 165 3.2 3.2 0.00 0.00 0.00 93 1011.0
20260507184157 26 141 4.8 4.8 0.00 0.00 0.00 93 1011.0
20260507183657 26 134 4.8 4.8 0.00 0.00 0.00 93 1011.0
20260507183158 26 109 4.8 4.8 0.00 0.00 0.00 92 1011.0
20260507182658 26 110 6.4 8.0 0.00 0.00 0.00 92 1011.0
20260507182157 26 123 8.0 8.0 0.00 0.00 0.00 92 1011.0
20260507181658 26 106 4.8 4.8 0.00 0.00 0.00 91 1011.0
20260507181158 26 139 1.6 1.6 0.00 0.00 0.00 91 1011.0
20260507180700 26 124 4.8 4.8 0.00 0.00 0.00 91 1011.0
20260507180157 26 135 3.2 3.2 0.00 0.00 0.00 91 1011.0
20260507175657 26 142 3.2 3.2 0.00 0.00 0.00 90 1011.0
20260507175157 26 157 0.0 1.6 0.00 0.00 0.00 90 1011.0
20260507174658 26 136 3.2 3.2 0.00 0.00 0.00 90 1011.0
20260507174157 26 158 1.6 3.2 0.00 0.00 0.00 90 1011.0
20260507173659 26 147 1.6 1.6 0.00 0.00 0.00 90 1011.0
20260507173158 26 144 1.6 1.6 0.00 0.00 0.00 90 1012.0
20260507172657 26 129 3.2 3.2 0.00 0.00 0.00 89 1012.0
20260507172159 26 140 1.6 1.6 0.00 0.00 0.00 89 1012.0
20260507171658 26 89 4.8 4.8 0.00 0.00 0.00 88 1012.0
20260507171157 26 150 0.0 0.0 0.00 0.00 0.00 88 1012.0
20260507170658 26 117 4.8 4.8 0.00 0.00 0.00 88 1012.0
20260507170157 27 132 3.2 3.2 0.00 0.00 0.00 88 1012.0
20260507165658 27 112 4.8 4.8 0.00 0.00 0.00 87 1012.0
20260507165159 27 154 3.2 3.2 0.00 0.00 0.00 87 1012.0
20260507164657 27 135 1.6 1.6 0.00 0.00 0.00 86 1012.0
20260507164157 27 138 3.2 3.2 0.00 0.00 0.00 86 1012.0
20260507163657 27 54 3.2 4.8 0.00 0.00 0.00 85 1012.0
20260507163158 27 138 3.2 3.2 0.00 0.00 0.00 85 1012.0
20260507162657 27 104 1.6 3.2 0.00 0.00 0.00 85 1012.0
20260507162157 27 153 3.2 4.8 0.00 0.00 0.00 85 1012.0
20260507161658 27 161 0.0 0.0 0.00 0.00 0.00 85 1012.0
20260507161157 27 102 0.0 0.0 0.00 0.00 0.00 85 1012.0
20260507160657 27 151 0.0 1.6 0.00 0.00 0.00 85 1012.0
20260507160157 28 123 1.6 1.6 0.00 0.00 0.00 85 1012.0
20260507155657 28 109 3.2 4.8 0.00 0.00 0.00 82 1012.0
20260507155157 28 149 0.0 0.0 0.00 0.00 0.00 81 1012.0
20260507154657 28 169 0.0 0.0 0.00 0.00 0.00 81 1012.0
20260507154158 28 170 0.0 0.0 0.00 0.00 0.00 81 1012.0
20260507153658 28 172 0.0 0.0 0.00 0.00 0.00 81 1012.0
20260507153159 29 168 1.6 1.6 0.00 0.00 0.00 81 1012.0
20260507152657 29 191 1.6 1.6 0.00 0.00 0.00 80 1012.0
20260507152157 29 222 3.2 3.2 0.00 0.00 0.00 80 1012.0
20260507151700 29 205 4.8 4.8 0.00 0.00 0.00 80 1012.0
20260507151157 29 167 1.6 3.2 0.00 0.00 0.00 80 1012.0
20260507150657 29 191 0.0 0.0 0.00 0.00 0.00 80 1012.0
20260507150157 29 192 0.0 0.0 0.00 0.00 0.00 80 1012.0
20260507145657 29 163 0.0 0.0 0.00 0.00 0.00 80 1012.0
20260507145158 29 233 1.6 1.6 0.00 0.00 0.00 80 1012.0
20260507144657 29 168 1.6 1.6 0.00 0.00 0.00 80 1012.0
20260507144157 29 186 1.6 1.6 0.00 0.00 0.00 80 1012.0
20260507143658 29 143 3.2 3.2 0.00 0.00 0.00 80 1012.0
20260507143157 29 208 4.8 4.8 0.00 0.00 0.00 80 1012.0
20260507142657 29 194 1.6 1.6 0.00 0.00 0.00 79 1012.0
20260507142157 29 182 0.0 0.0 0.00 0.00 0.00 79 1012.0
20260507141704 29 167 3.2 3.2 0.00 0.00 0.00 79 1012.0
20260507141157 29 204 0.0 0.0 0.00 0.00 0.00 79 1012.0
20260507140659 29 153 3.2 3.2 0.00 0.00 0.00 78 1012.0
20260507140158 29 283 6.4 9.7 0.00 0.00 0.00 78 1012.0
20260507135657 29 173 3.2 3.2 0.00 0.00 0.00 78 1012.0
20260507135157 29 246 4.8 4.8 0.00 0.00 0.00 78 1012.0
20260507134657 29 250 3.2 3.2 0.00 0.00 0.00 78 1012.0
20260507134157 29 160 4.8 4.8 0.00 0.00 0.00 78 1012.0
20260507133658 30 181 1.6 3.2 0.00 0.00 0.00 78 1012.0
20260507133157 30 193 3.2 3.2 0.00 0.00 0.00 77 1012.0
20260507132657 30 197 1.6 3.2 0.00 0.00 0.00 77 1012.0
20260507132158 30 169 1.6 1.6 0.00 0.00 0.00 77 1012.0
20260507131657 30 186 1.6 1.6 0.00 0.00 0.00 77 1012.0
20260507131159 30 224 4.8 4.8 0.00 0.00 0.00 77 1012.0
20260507130657 30 176 1.6 1.6 0.00 0.00 0.00 77 1012.0
20260507130158 30 210 4.8 4.8 0.00 0.00 0.00 76 1011.0
20260507125658 30 251 4.8 4.8 0.00 0.00 0.00 76 1011.0
20260507125200 30 316 8.0 8.0 0.00 0.00 0.00 76 1011.0
20260507124657 30 320 6.4 9.7 0.00 0.00 0.00 76 1011.0
20260507124158 30 286 3.2 3.2 0.00 0.00 0.00 76 1011.0
20260507123657 30 149 4.8 4.8 0.00 0.00 0.00 75 1011.0
20260507123157 30 219 4.8 8.0 0.00 0.00 0.00 75 1011.0
20260507122658 30 193 3.2 3.2 0.00 0.00 0.00 74 1011.0
20260507122158 30 258 3.2 4.8 0.00 0.00 0.00 74 1011.0
20260507121658 30 344 6.4 9.7 0.00 0.00 0.00 73 1011.0
20260507121157 30 174 3.2 3.2 0.00 0.00 0.00 73 1011.0
20260507120658 30 336 6.4 9.7 0.00 0.00 0.00 72 1010.0
20260507120157 30 284 4.8 4.8 0.00 0.00 0.00 72 1010.0
20260507115658 30 191 6.4 11.3 0.00 0.00 0.00 72 1010.0
20260507115157 30 282 6.4 8.0 0.00 0.00 0.00 72 1010.0
20260507114657 30 198 3.2 3.2 0.00 0.00 0.00 72 1010.0
20260507114157 30 327 4.8 8.0 0.00 0.00 0.00 72 1010.0
20260507113657 30 298 4.8 4.8 0.00 0.00 0.00 72 1010.0
20260507113157 30 292 4.8 8.0 0.00 0.00 0.00 71 1010.0
20260507112657 30 245 4.8 4.8 0.00 0.00 0.00 71 1010.0
20260507112157 30 312 8.0 9.7 0.00 0.00 0.00 71 1010.0
20260507111657 30 311 8.0 9.7 0.00 0.00 0.00 71 1010.0
20260507111157 30 185 3.2 3.2 0.00 0.00 0.00 71 1010.0
20260507110657 30 326 8.0 9.7 0.00 0.00 0.00 70 1010.0
20260507110159 30 167 1.6 1.6 0.00 0.00 0.00 71 1010.0
20260507105659 30 187 1.6 3.2 0.00 0.00 0.00 70 1010.0
20260507105157 30 232 3.2 3.2 0.00 0.00 0.00 69 1009.0
20260507104659 30 260 4.8 8.0 0.00 0.00 0.00 68 1009.0
20260507104157 30 252 8.0 9.7 0.00 0.00 0.00 67 1009.0
20260507103657 31 196 3.2 3.2 0.00 0.00 0.00 67 1009.0
20260507103158 31 212 4.8 4.8 0.00 0.00 0.00 66 1009.0
20260507102659 31 295 8.0 9.7 0.00 0.00 0.00 66 1009.0
20260507102158 31 286 4.8 8.0 0.00 0.00 0.00 65 1009.0
20260507101657 31 293 9.7 12.9 0.00 0.00 0.00 64 1009.0
20260507101157 31 257 8.0 9.7 0.00 0.00 0.00 64 1009.0
20260507100657 31 295 8.0 9.7 0.00 0.00 0.00 63 1009.0
20260507100158 31 312 9.7 9.7 0.00 0.00 0.00 61 1009.0
20260507095657 31 188 4.8 4.8 0.00 0.00 0.00 61 1009.0
20260507095157 31 235 6.4 8.0 0.00 0.00 0.00 61 1009.0
20260507094657 31 275 6.4 9.7 0.00 0.00 0.00 62 1009.0
20260507094157 31 275 8.0 9.7 0.00 0.00 0.00 61 1009.0
20260507093657 32 311 8.0 9.7 0.00 0.00 0.00 62 1009.0
20260507093157 32 258 8.0 9.7 0.00 0.00 0.00 62 1009.0
20260507092657 32 323 8.0 11.3 0.00 0.00 0.00 61 1009.0
20260507092157 32 202 3.2 4.8 0.00 0.00 0.00 61 1009.0
20260507091657 32 254 9.7 12.9 0.00 0.00 0.00 61 1009.0
20260507091157 32 268 8.0 9.7 0.00 0.00 0.00 61 1009.0
20260507090658 32 286 11.3 14.5 0.00 0.00 0.00 60 1009.0
20260507090157 32 232 12.9 14.5 0.00 0.00 0.00 60 1009.0
20260507085658 32 310 8.0 11.3 0.00 0.00 0.00 62 1009.0
20260507085157 32 312 12.9 16.1 0.00 0.00 0.00 63 1009.0
20260507084657 32 301 9.7 11.3 0.00 0.00 0.00 62 1009.0
20260507084158 32 265 11.3 12.9 0.00 0.00 0.00 60 1009.0
20260507083658 32 266 12.9 14.5 0.00 0.00 0.00 59 1009.0
20260507083158 32 303 11.3 11.3 0.00 0.00 0.00 59 1009.0
20260507082657 32 304 11.3 12.9 0.00 0.00 0.00 58 1009.0
20260507082157 32 294 8.0 9.7 0.00 0.00 0.00 60 1009.0
20260507081657 32 331 17.7 17.7 0.00 0.00 0.00 60 1009.0
20260507081157 32 323 14.5 16.1 0.00 0.00 0.00 62 1009.0
20260507080657 32 324 4.8 8.0 0.00 0.00 0.00 60 1009.0
20260507080158 32 284 11.3 12.9 0.00 0.00 0.00 60 1009.0
20260507075659 32 312 12.9 14.5 0.00 0.00 0.00 60 1009.0
20260507075158 32 296 9.7 17.7 0.00 0.00 0.00 62 1009.0
20260507074657 33 263 8.0 9.7 0.00 0.00 0.00 59 1009.0
20260507074158 33 177 8.0 8.0 0.00 0.00 0.00 58 1009.0
20260507073658 32 204 11.3 17.7 0.00 0.00 0.00 59 1009.0
20260507073157 32 296 9.7 11.3 0.00 0.00 0.00 59 1010.0
20260507072657 32 212 11.3 11.3 0.00 0.00 0.00 59 1010.0
20260507072158 32 324 12.9 17.7 0.00 0.00 0.00 60 1010.0
20260507071658 32 291 17.7 22.5 0.00 0.00 0.00 60 1010.0
20260507071158 32 261 14.5 16.1 0.00 0.00 0.00 60 1010.0
20260507070659 32 284 12.9 14.5 0.00 0.00 0.00 62 1010.0
20260507070157 32 290 6.4 9.7 0.00 0.00 0.00 60 1010.0
20260507065658 33 288 17.7 20.9 0.00 0.00 0.00 59 1010.0
20260507065157 32 304 8.0 11.3 0.00 0.00 0.00 58 1010.0
20260507064657 32 344 11.3 12.9 0.00 0.00 0.00 61 1010.0
20260507064158 32 214 9.7 14.5 0.00 0.00 0.00 61 1010.0
20260507063657 32 281 9.7 11.3 0.00 0.00 0.00 62 1010.0
20260507063159 32 196 11.3 11.3 0.00 0.00 0.00 62 1010.0
20260507062658 32 319 8.0 11.3 0.00 0.00 0.00 61 1010.0
20260507062157 32 316 17.7 20.9 0.00 0.00 0.00 61 1010.0
20260507061657 32 315 8.0 11.3 0.00 0.00 0.00 60 1010.0
20260507061158 32 288 16.1 22.5 0.00 0.00 0.00 59 1010.0
20260507060657 32 265 17.7 17.7 0.00 0.00 0.00 59 1010.0
20260507060157 32 311 17.7 20.9 0.00 0.00 0.00 60 1010.0
20260507055658 32 298 19.3 20.9 0.00 0.00 0.00 60 1010.0
20260507055157 32 269 12.9 16.1 0.00 0.00 0.00 58 1010.0
20260507054658 33 278 14.5 20.9 0.00 0.00 0.00 58 1010.0
20260507054158 33 320 14.5 16.1 0.00 0.00 0.00 57 1010.0
20260507053658 33 156 4.8 8.0 0.00 0.00 0.00 56 1010.0
20260507053157 33 295 14.5 17.7 0.00 0.00 0.00 56 1011.0
20260507052657 33 299 8.0 11.3 0.00 0.00 0.00 57 1011.0
20260507052158 33 290 12.9 14.5 0.00 0.00 0.00 56 1011.0
20260507051657 33 255 11.3 14.5 0.00 0.00 0.00 56 1010.0
20260507051157 33 283 11.3 14.5 0.00 0.00 0.00 56 1011.0
20260507050657 33 270 8.0 11.3 0.00 0.00 0.00 56 1011.0
20260507050158 33 284 14.5 16.1 0.00 0.00 0.00 54 1011.0
20260507045657 33 297 9.7 9.7 0.00 0.00 0.00 55 1011.0
20260507045157 33 250 8.0 9.7 0.00 0.00 0.00 56 1011.0
20260507044657 33 237 11.3 14.5 0.00 0.00 0.00 56 1011.0
20260507044157 33 280 12.9 16.1 0.00 0.00 0.00 56 1011.0
20260507043658 33 305 11.3 17.7 0.00 0.00 0.00 56 1011.0
20260507043158 32 275 11.3 12.9 0.00 0.00 0.00 56 1012.0
20260507042657 33 295 4.8 8.0 0.00 0.00 0.00 56 1012.0
20260507042157 33 272 4.8 8.0 0.00 0.00 0.00 56 1012.0
20260507041659 32 271 11.3 12.9 0.00 0.00 0.00 56 1011.0
20260507041157 33 293 14.5 16.1 0.00 0.00 0.00 55 1012.0
20260507040657 32 221 6.4 8.0 0.00 0.00 0.00 56 1012.0
20260507040157 33 346 11.3 20.9 0.00 0.00 0.00 56 1012.0
20260507035658 32 291 11.3 12.9 0.00 0.00 0.00 55 1012.0
20260507035158 32 208 14.5 16.1 0.00 0.00 0.00 54 1012.0
20260507034657 33 273 11.3 12.9 0.00 0.00 0.00 55 1012.0
20260507034159 33 263 8.0 11.3 0.00 0.00 0.00 55 1012.0
20260507033657 33 223 9.7 11.3 0.00 0.00 0.00 55 1012.0
20260507033158 33 272 4.8 8.0 0.00 0.00 0.00 58 1012.0
20260507032658 33 308 12.9 14.5 0.00 0.00 0.00 58 1012.0
20260507032157 32 231 6.4 8.0 0.00 0.00 0.00 61 1012.0
20260507031657 32 323 8.0 8.0 0.00 0.00 0.00 59 1012.0
20260507031157 32 269 11.3 12.9 0.00 0.00 0.00 58 1012.0
20260507030657 32 279 16.1 17.7 0.00 0.00 0.00 59 1012.0
20260507030158 32 248 3.2 3.2 0.00 0.00 0.00 64 1012.0
20260507025657 32 311 11.3 12.9 0.00 0.00 0.00 64 1012.0
20260507025157 32 110 4.8 4.8 0.00 0.00 0.00 65 1012.0
20260507024658 32 304 4.8 4.8 0.00 0.00 0.00 65 1013.0
20260507024157 31 242 6.4 8.0 0.00 0.00 0.00 67 1013.0
20260507023700 31 252 8.0 9.7 0.00 0.00 0.00 67 1013.0
20260507023157 31 276 9.7 12.9 0.00 0.00 0.00 69 1013.0
20260507022657 31 356 4.8 8.0 0.00 0.00 0.00 69 1013.0
20260507022157 31 48 4.8 8.0 0.00 0.00 0.00 70 1013.0
20260507021657 31 184 1.6 3.2 0.00 0.00 0.00 73 1012.0
20260507021158 30 81 4.8 4.8 0.00 0.00 0.00 73 1013.0
20260507020657 30 59 11.3 14.5 0.00 0.00 0.00 73 1013.0
20260507020157 31 200 3.2 4.8 0.00 0.00 0.00 72 1012.0
20260507015657 30 162 0.0 0.0 0.00 0.00 0.00 75 1013.0
20260507015157 30 159 0.0 0.0 0.00 0.00 0.00 77 1013.0
20260507014657 30 61 3.2 8.0 0.00 0.00 0.00 77 1013.0
20260507014159 30 170 1.6 1.6 0.00 0.00 0.00 77 1013.0
20260507013658 30 105 3.2 3.2 0.00 0.00 0.00 77 1013.0
20260507013158 30 143 3.2 3.2 0.00 0.00 0.00 78 1013.0
20260507012658 30 147 3.2 4.8 0.00 0.00 0.00 79 1013.0
20260507012157 29 151 3.2 3.2 0.00 0.00 0.00 80 1013.0
20260507011657 28 161 1.6 1.6 0.00 0.00 0.00 82 1013.0
20260507011157 28 132 3.2 3.2 0.00 0.00 0.00 82 1013.0
20260507010657 28 32 4.8 4.8 0.00 0.00 0.00 82 1013.0
20260507010157 28 146 3.2 3.2 0.00 0.00 0.00 82 1013.0
20260507005657 28 105 4.8 4.8 0.00 0.00 0.00 82 1013.0
20260507005157 28 152 3.2 4.8 0.00 0.00 0.00 83 1013.0
20260507004658 27 151 3.2 3.2 0.00 0.00 0.00 85 1013.0
20260507004157 27 160 3.2 3.2 0.00 0.00 0.00 85 1013.0
20260507003657 27 108 4.8 4.8 0.00 0.00 0.00 86 1013.0
20260507003158 27 148 3.2 3.2 0.00 0.00 0.00 86 1013.0
20260507002657 27 151 1.6 3.2 0.00 0.00 0.00 87 1013.0
20260507002158 27 112 1.6 3.2 0.00 0.00 0.00 88 1013.0
20260507001657 26 90 4.8 4.8 0.00 0.00 0.00 88 1013.0
20260507001157 26 148 1.6 1.6 0.00 0.00 0.00 89 1013.0
20260507000657 26 101 1.6 3.2 0.00 0.00 0.00 89 1013.0
20260507000157 26 112 3.2 3.2 0.00 0.00 0.00 88 1012.0
20260506235657 26 134 0.0 1.6 0.00 0.00 0.00 89 1012.0
20260506235158 26 77 6.4 8.0 0.00 0.00 0.00 89 1012.0
20260506234657 26 136 3.2 4.8 0.00 0.00 0.00 89 1012.0
20260506234157 26 142 3.2 3.2 0.00 0.00 0.00 90 1012.0
20260506233658 26 135 3.2 4.8 0.00 0.00 0.00 89 1012.0
20260506233158 26 150 3.2 3.2 0.00 0.00 0.00 90 1012.0
20260506232657 26 150 1.6 1.6 0.00 0.00 0.00 90 1012.0
20260506232157 25 145 1.6 1.6 0.00 0.00 0.00 91 1012.0
20260506231657 25 162 3.2 3.2 0.00 0.00 0.00 91 1012.0
20260506231157 25 141 1.6 3.2 0.00 0.00 0.00 92 1012.0
20260506230658 25 145 4.8 4.8 0.00 0.00 0.00 92 1012.0
20260506230157 25 139 3.2 3.2 0.00 0.00 0.00 93 1012.0
20260506225657 25 141 3.2 3.2 0.00 0.00 0.00 93 1012.0
20260506225157 25 161 1.6 1.6 0.00 0.00 0.00 94 1012.0
20260506224659 25 149 1.6 3.2 0.00 0.00 0.00 94 1012.0
20260506224159 25 157 0.0 0.0 0.00 0.00 0.00 94 1012.0
20260506223700 25 163 1.6 1.6 0.00 0.00 0.00 94 1012.0
20260506223157 25 158 1.6 3.2 0.00 0.00 0.00 94 1012.0
20260506222658 25 145 3.2 3.2 0.00 0.00 0.00 94 1012.0
20260506222158 25 140 1.6 3.2 0.00 0.00 0.00 94 1011.0
20260506221657 25 150 3.2 3.2 0.00 0.00 0.00 94 1011.0
20260506221157 25 147 1.6 1.6 0.00 0.00 0.00 94 1011.0
20260506220658 25 133 3.2 3.2 0.00 0.00 0.00 94 1011.0
20260506220157 25 141 1.6 1.6 0.00 0.00 0.00 94 1012.0
20260506215657 25 133 3.2 3.2 0.00 0.00 0.00 94 1011.0
20260506215157 25 152 0.0 0.0 0.00 0.00 0.00 94 1011.0
20260506214656 25 148 1.6 1.6 0.00 0.00 0.00 94 1011.0
20260506214158 25 138 3.2 3.2 0.00 0.00 0.00 94 1011.0
20260506213657 25 152 1.6 3.2 0.00 0.00 0.00 94 1011.0
20260506213157 25 158 0.0 0.0 0.00 0.00 0.00 94 1011.0
20260506212658 25 157 0.0 0.0 0.00 0.00 0.00 94 1011.0
20260506212157 25 159 0.0 1.6 0.00 0.00 0.00 94 1011.0
20260506211657 25 151 1.6 3.2 0.00 0.00 0.00 93 1011.0
20260506211157 25 155 1.6 1.6 0.00 0.00 0.00 93 1011.0
20260506210657 25 160 0.0 0.0 0.00 0.00 0.00 93 1011.0
20260506210157 25 146 1.6 1.6 0.00 0.00 0.00 93 1011.0
20260506205657 25 137 1.6 1.6 0.00 0.00 0.00 93 1011.0
20260506205157 25 154 1.6 1.6 0.00 0.00 0.00 93 1010.0
20260506204658 25 140 3.2 3.2 0.00 0.00 0.00 93 1011.0
20260506204157 25 135 4.8 4.8 0.00 0.00 0.00 93 1010.0
20260506203657 25 161 0.0 0.0 0.00 0.00 0.00 92 1011.0